Regional Weather Roundup
Issued by NWS Charleston, SC

Current Version | Previous Version | Graphics & Text | Print | Product List | Glossary On
Versions: 1 2 3 4 5 6 7 8 9 10 11 12 13 14 15 16 17 18 19 20 21 22 23 24 25 26 27 28 29 30 31 32 33 34 35 36 37 38 39 40 41 42 43 44 45 46 47 48 49 50
000 ASUS42 KCHS 241727 RWRCHS REGIONAL WEATHER ROUNDUP NATIONAL WEATHER SERVICE CHARLESTON SC 100 PM EDT FRI MAR 24 2017 NOTE: "FAIR" INDICATES FEW OR NO CLOUDS BELOW 12,000 FEET WITH NO SIGNIFICANT WEATHER AND/OR OBSTRUCTIONS TO VISIBILITY. NOT ALL STATIONS ARE QUALITY CONTROLLED. USE DATA WITH CAUTION... ESPECIALLY DEWPOINT OBSERVATIONS. SCZ027-030-031-034>040-042>050-241800- ...SOUTHEAST SOUTH CAROLINA... CITY SKY/WX TMP DP RH WIND PRES REMARKS N CHARLESTON PTSUNNY 72 50 45 SE12G21 30.47F WATERFRONT PRK N/A 68 56 65 E9 30.47F JOHNS ISLAND FAIR 72 54 53 VRB6G13 30.47F PINOPOLIS N/A 61 54 77 N5 30.39F MONCKS CORNER FAIR 72 45 37 SE8G17 30.46F SUMMERVILLE CLOUDY 72 46 40 S10 30.47F BEAUFORT MCAS MOSUNNY 73 55 53 SE10 30.47F BEAUFORT ARPT FAIR 72 50 46 SE9 30.46F HILTON HEAD IS MOSUNNY 68 54 60 NE9 30.47F WALTERBORO PTSUNNY 70 48 46 SE10 30.47F ALLENDALE FAIR 73 46 38 SE13 30.44F ...SOUTHERN MIDLANDS AND PEE DEE... CITY SKY/WX TMP DP RH WIND PRES REMARKS GEORGETOWN FAIR 68 48 49 SE8 30.50F KINGSTREE FAIR 72 39 30 SE9 30.46F ORANGEBURG SUNNY 71 46 40 S9 30.46F BARNWELL FAIR 73 46 38 SE14 30.45F AIKEN FAIR 70 45 40 SE5G16 30.48F MANNING FAIR 70 43 37 SW8 30.47F COLUMBIA MOSUNNY 72 47 40 VRB7G16 30.46F SUMTER MOSUNNY 71 46 40 S10 30.45F FLORENCE SUNNY 71 45 39 S14 30.47F MYRTLE BEACH SUNNY 64 50 59 SE7 30.51F N MYRTLE BEACH SUNNY 64 50 60 SE8 30.50F $$ GAZ063-065-086>088-099>101-113>116-118-119-134>141-150-241800- ...SOUTHEAST GEORGIA... CITY SKY/WX TMP DP RH WIND PRES REMARKS SAVANNAH ARPT PTSUNNY 73 49 42 E15G23 30.46F HUNTER AAF MOSUNNY 73 54 51 SE10 30.43F FORT STEWART PTSUNNY 73 49 44 E17 30.42F STATESBORO SUNNY 74 49 39 S13G18 30.44F SYLVANIA SUNNY N/A N/A N/A SE8 30.45F CLAXTON FAIR 73 51 45 SE7 30.44F ...CSRA...CENTRAL AND FAR SOUTHEAST GEORGIA... CITY SKY/WX TMP DP RH WIND PRES REMARKS THOMSON MOSUNNY 71 45 39 SW8 30.49F AUGUSTA-BUSH SUNNY 74 47 38 S15 30.44F AUGUSTA-DANIEL SUNNY 72 46 39 S12 30.46F SWAINSBORO FAIR 72 46 40 SE7G20 30.44F VIDALIA MOSUNNY 73 50 43 S9 30.43F EASTMAN FAIR 75 31 19 SE9G20 30.44F HAZLEHURST FAIR 75 51 43 S10G17 30.42F ALMA MOSUNNY 74 51 44 SE10 30.42F WAYCROSS PTSUNNY 79 53 40 E13G18 30.41F JESUP PTSUNNY 73 46 38 SE10G16 30.43F BAXLEY FAIR 75 54 46 SE13 30.41F BRUNSWICK CLOUDY 73 55 53 E16 30.44F SAINT SIMONS SUNNY 72 55 55 E10 30.44S $$ SCZ027-028-034-036>038-045-046-048>050-GAZ119-141-241800- ...LAKE AND SUPPLEMENTAL COASTAL OBSERVATIONS... STATION/POSITION TIME TEMP WIND PRES WAVE SWELL AIR SEA DIR/SP/G HT/PER HT/PER/DIR (UTC) (F) (DEG/KT/KT) (MB) (FT/S) (FT/S/D) WINYAH BAY 1645 61 70/ 7 1033.0S LAKE MURRAY 1720 66 CALM 1030.5F ACE BASIN NERRS 1645 72 110/ 5 1032.0S FORT PULASKI 1700 64 61 70/ 11/ 15 1031.8 SAPELO ISLAND 1700 72 80/ 11 1031.0 $$ ANZ835-935-AMZ111-154-330-350-352-354-370-450-454-472-241800- ...C-MAN AND BUOY OBSERVATIONS... STATION/POSITION TIME TEMP WIND PRES WAVE SWELL AIR SEA DIR/SP/G HT/PER HT/PER/DIR (UTC) (F) (DEG/KT/KT) (MB) (FT/S) (FT/S/D) BUOY 41004 1650 69 71 120/ 14/ 16 1031.6F 5/ 5 3/120/ 7 BUOY 41008 1650 65 62 90/ 8/ 10 1030.9F 4/ 6 5/110/ 6 FOLLY BEACH CMAN 1700 62 60/ 9/ 10 1032.7F CAPERS NEARSHORE 1708 60 60/ 10/ 14 1032.0F FRIPP NEARSHORE 1708 61 60 50/ 8/ 10 1031.5F STATION/POSITION TIME TEMP WIND PRES WAVE SWELL AIR SEA DIR/SP/G HT/PER HT/PER/DIR (UTC) (F) (DEG/KT/KT) (MB) (FT/S) (FT/S/D) 5E ST. MARYS GA 1700 64 N/A 5/ 6 2/ 80/11 FRYING PAN BUOY 1710 67 71 140/ 10/ 12 1032.3 BUOY 41025 1650 63 75 200/ 14/ 19 1033.6F 4/ 9 3/ 60/ 9 CAPE LOOKOUT NC 1700 63 180/ 11/ 12 1032.8F BUOY 41002 1650 63 73 80/ 14/ 17 1033.3F 5/10 5/ 30/10 BUOY 41010 NOT AVBL ST AUGUSTINE FL 1700 67 66 100/ 8/ 8 1030.3F $$

USA.gov is the U.S. government's official web portal to all federal, state and local government web resources and services.